Wind_Speed
35 31 27 29 28 29 32 32 30 28 27 25 19 10 8 8 9 7 8 9 8 6
32 32 33 31 25 27 31 30 28 27 26 19 14 9 8 9 8 9 9 8 9 9
29 33 35 31 29 29 31 29 29 29 24 20 14 9 8 10 10 10 10 10 10 10
25 30 30 29 27 27 29 33 34 29 22 14 10 8 8 11 11 11 12 12 11 12
22 22 22 21 22 25 27 31 26 19 13 9 8 8 13 14 14 13 12 13 12 14
14 14 15 16 18 19 21 17 14 10 4 3 9 11 13 16 16 15 15 14 13 14
13 15 16 19 23 19 19 12 10 9 9 10 11 15 15 17 19 18 17 16 16 14
16 20 26 21 20 15 15 11 6 8 12 12 14 15 18 19 19 18 17 18 18 17
24 20 17 18 17 13 7 4 7 11 14 16 18 22 20 20 18 19 18 19 18 18
20 21 21 15 13 11 5 8 14 13 13 17 18 18 20 21 23 20 21 22 21 21
26 24 17 10 5 4 12 12 10 12 13 15 17 17 19 20 22 21 23 25 25 25
16 11 6 3 8 8 7 9 9 11 14 16 19 19 19 20 23 22 26 27 27 26
6 4 2 1 1 4 6 9 11 14 15 17 21 21 22 23 24 25 28 28 28 30
9 7 5 3 4 6 8 12 15 18 20 21 22 24 24 25 26 23 27 28 28 28
Wind_Direction
228 228 222 227 223 212 206 203 199 196 190 179 175 184 218 214 257 258 247 249 248 239
232 226 230 230 227 214 209 203 194 186 176 176 191 212 209 237 244 241 251 248 240 251
223 231 232 233 224 213 207 196 183 180 183 198 222 222 207 236 228 243 250 243 246 258
225 232 228 226 215 208 197 193 184 188 194 198 211 205 247 244 248 251 246 249 257 268
226 222 211 207 202 197 191 185 192 191 193 179 193 225 237 241 245 250 248 253 254 269
195 184 176 179 177 163 174 180 179 171 197 250 257 241 244 247 247 254 251 246 256 271
138 142 162 162 150 168 169 165 156 177 240 248 256 265 262 251 250 254 248 249 260 267
140 143 147 151 144 139 147 157 171 215 232 250 265 265 262 254 256 251 249 255 263 270
140 137 135 136 137 139 145 157 201 249 262 264 262 267 265 263 261 256 254 259 263 267
127 126 123 116 109 109 157 260 277 268 266 271 275 278 278 277 269 262 259 262 265 267
119 113 107 100 123 196 287 286 268 279 285 287 289 293 291 287 280 268 266 265 263 261
105 107 116 261 284 273 265 282 293 295 296 297 297 300 297 293 287 278 275 270 263 257
72 320 336 151 297 309 307 306 306 306 307 306 304 304 301 298 291 283 283 278 268 262
89 87 70 41 360 335 328 319 315 312 310 308 310 311 312 310 305 288 285 282 276 263
Height
814 819 824 827 829 831 834 836 840 843 848 852 855 859 860 861 861 860 861 862 863 864
811 814 818 821 825 827 829 833 838 843 847 852 851 854 854 857 857 858 858 859 860 862
804 808 812 816 820 821 825 829 835 840 844 845 851 851 851 852 854 855 856 857 857 858
800 803 806 811 816 820 822 825 829 833 839 843 846 849 850 853 855 854 854 854 854 854
797 799 803 808 814 818 821 826 830 837 839 840 844 845 846 848 850 850 850 851 850 849
793 798 803 809 814 819 826 830 832 836 843 844 844 842 842 843 846 845 845 845 845 844
796 801 805 809 809 822 824 831 832 833 838 841 841 842 841 841 840 840 840 839 838 838
798 802 807 813 816 823 826 827 832 834 836 837 838 837 837 836 835 835 835 833 832 831
799 804 810 815 820 820 827 830 831 833 834 832 832 832 833 832 831 830 828 827 826 824
804 809 813 819 823 825 829 829 830 829 830 829 828 828 827 826 825 823 822 820 818 817
808 812 818 820 823 825 826 826 826 825 825 824 823 823 822 820 818 817 814 812 811 809
813 815 817 819 820 821 822 823 822 822 821 820 818 818 817 815 812 809 806 804 801 799
811 814 815 817 818 819 819 819 819 818 817 815 814 813 811 809 806 801 798 794 791 788
812 814 816 817 817 817 817 816 815 813 812 810 809 806 804 802 799 795 790 786 781 779